User: anonymous   Login
Location: LDNL
(36.4545°S, 141.6685°E)
Time: 12:31:42
(UTC+10:00)
Language:

BEESAT - Orbit

View from above orbital plane
View from above orbital plane
View from above satellite
View from above satellite

Ground track
Ground track

The orbit data is extracted from the following two-line orbital elements,

1 35933U 09051C   22138.18038976  .00000979  00000-0  22945-3 0  9996
2 35933  98.5664 354.9190 0006323 142.9497 217.2138 14.56843011671768
Epoch (UTC): 18 May 2022 04:19:45
Eccentricity: 0.0006323
inclination: 98.5664°
perigee height: 699 km
apogee height: 708 km
right ascension of ascending node: 354.9190°
argument of perigee: 142.9497°
revolutions per day: 14.56843011
mean anomaly at epoch: 217.2138°
orbit number at epoch: 67176

The dashed part of the orbit path shows where the satellite is in the earth's shadow,  

DLR